Location: Lichtensteig
(47.3376°N, 9.0841°E)
Time: 23:55:54
(UTC+00:00)

Cosmos 1727 Rocket - Pass Details

Date: 03 March 2021
Orbit: 962 x 996 km, 82.9° (Epoch: 20 April)

Event Time Altitude Azimuth Distance (km) Brightness Sun altitude
Rises 18:41:50 0° 356° (N) 3,659 7.2 -16.0°
Reaches altitude 10° 18:44:33 10° 4° (N) 2,709 6.4 -16.5°
Maximum altitude 18:50:18 38° 72° (ENE) 1,432 4.4 -17.4°
Enters shadow 18:52:54 27° 118° (ESE) 1,775 4.8 -17.9°
